Tracking 21611 objects as of 21-Oct-2020
HD Live streaming from Space Station
objects crossing your sky now

MOVE-IIB

Track MOVE-IIB now!
10-day predictions
MOVE-IIB is classified as:


NORAD ID: 44398
Int'l Code: 2019-038N
Perigee: 517.0 km
Apogee: 553.8 km
Inclination: 97.5 °
Period: 95.2 minutes
Semi major axis: 6906 km
RCS: Unknown
Launch date: July 5, 2019
Source: (TBD)
Launch site: VOSTOCHNY COSMODROME (VOSTO)

Uplink (MHz):
Downlink (MHz): 145.840
Beacon (MHz):
Mode: 12k5bps QPSK
Call sign:
Status: Unknown

aabbcc
Your satellite tracking list
Your tracking list is empty




NASA's NSSDC Master Catalog

Two Line Element Set (TLE):
1 44398U 19038N   20294.92546627 +.00001591 +00000-0 +94161-4 0  9998
2 44398 097.5498 254.6699 0026600 057.0735 303.3049 15.12610569071549
Source of the keplerian elements: AFSPC